Temperature
19 19 19 20 20 21 22 25 27 27 27 26 26 26 26 25 24 20 19 18 17 17 16 16 15 15 14 14 14 13 13 12 11 11 11 11 11 11 11 11 11 11 11 11 12 11 11 10 11
19 19 20 21 20 21 23 25 27 27 26 26 26 26 27 23 22 19 18 18 17 16 16 16 15 15 14 14 13 13 13 12 12 11 11 11 11 11 12 11 12 11 11 12 12 11 10 10 10
19 19 20 21 21 22 24 27 28 26 25 26 26 26 25 23 21 19 19 18 17 16 15 15 15 14 14 13 13 13 12 12 11 11 11 11 11 11 11 12 12 12 12 13 13 12 11 10 10
19 20 21 21 22 24 25 26 26 26 26 25 26 26 23 22 21 20 19 18 16 16 15 15 15 14 14 13 13 13 12 11 11 11 11 11 11 11 11 12 12 12 12 12 13 12 12 11 12
19 20 20 20 22 24 26 28 27 27 27 26 26 26 22 21 21 20 19 17 17 16 16 15 15 14 14 13 13 13 12 11 11 11 11 11 11 11 11 11 11 11 12 12 12 13 13 13 13
20 21 20 21 23 25 26 28 27 27 27 27 26 26 21 20 20 19 18 17 17 16 16 15 15 14 13 13 13 13 12 12 11 11 12 11 11 11 11 11 11 11 11 11 12 13 13 13 13
20 19 19 21 23 24 27 28 27 26 26 27 26 26 21 20 20 20 18 17 17 16 16 15 15 14 14 14 14 13 12 12 12 12 12 12 12 11 11 11 11 11 11 12 12 13 13 13 13
19 19 20 21 22 24 27 27 27 26 26 26 26 26 22 21 21 20 19 17 16 16 15 15 15 15 15 15 15 14 13 12 12 13 13 13 13 12 11 11 12 12 12 12 12 13 13 13 14
19 18 19 21 23 24 25 25 26 25 25 25 25 24 23 22 22 20 19 17 17 16 16 15 15 14 14 15 16 15 15 14 14 14 14 14 13 12 12 13 13 12 12 12 13 13 13 13 13
19 17 19 22 23 23 23 24 25 25 25 25 24 23 22 22 22 21 20 19 18 17 16 16 15 15 14 14 15 16 16 16 16 16 15 14 13 12 11 12 13 13 13 13 13 13 13 13 13
20 19 20 22 23 22 22 23 24 24 24 25 25 23 22 22 22 22 21 20 20 19 18 17 16 15 15 15 15 17 17 17 16 16 15 14 13 12 12 13 13 14 14 14 14 13 13 13 13
20 20 21 22 22 21 22 23 24 24 24 25 25 24 24 23 22 22 22 21 20 20 19 18 17 16 16 16 16 17 17 16 17 16 14 14 13 13 13 14 14 14 14 14 13 13 13 13 13
20 20 21 22 22 21 21 21 22 24 25 25 25 24 23 23 22 21 21 20 20 20 20 19 18 17 17 17 17 18 17 17 17 16 16 15 14 14 14 14 14 13 13 13 12 13 13 13 13
21 21 21 22 22 22 21 22 23 23 24 25 24 24 23 22 22 21 21 21 21 20 20 19 19 18 18 18 18 18 18 17 17 17 17 16 15 15 14 14 14 14 14 14 13 13 13 12 12
21 20 20 21 22 22 22 21 22 24 24 24 24 24 23 23 23 22 22 21 21 20 20 19 19 19 19 18 18 18 18 17 17 17 17 17 16 16 15 15 15 15 14 14 14 14 13 12 12
20 19 18 21 21 22 20 20 23 25 24 24 24 24 24 24 23 23 22 22 21 21 20 19 19 18 19 19 19 18 18 17 18 18 18 18 17 17 16 16 16 15 15 14 14 14 13 13 12
18 18 19 21 22 22 21 20 22 24 24 24 24 24 24 24 24 23 23 23 22 21 21 20 19 19 19 19 19 18 18 18 18 19 19 19 19 18 18 17 17 16 15 14 14 14 13 13 12
19 19 20 20 21 21 20 20 22 24 23 23 24 24 23 22 22 22 23 23 22 22 21 21 20 19 18 18 18 18 18 19 19 19 19 19 19 19 18 18 18 16 15 15 14 13 13 12 11
20 21 21 22 21 21 20 21 22 22 22 22 22 21 20 20 20 20 21 21 21 21 21 21 20 20 19 18 17 17 18 19 18 19 19 19 19 19 18 18 17 16 15 15 14 13 12 12 11
20 20 21 22 21 20 20 21 22 22 21 21 20 19 19 19 18 18 18 20 20 20 20 20 20 19 19 18 18 17 17 18 18 18 18 18 18 17 16 16 16 15 14 13 13 12 11 11 11
19 19 20 21 21 20 20 20 21 21 21 20 20 19 19 18 17 17 18 19 19 19 19 19 19 19 18 18 17 17 16 16 16 17 17 17 16 15 15 14 14 13 12 12 12 12 11 11 11
19 20 19 19 18 19 19 18 19 19 19 19 19 19 18 18 17 18 18 18 18 18 19 19 18 18 17 17 17 16 16 15 16 15 15 15 15 15 15 14 13 12 12 11 11 11 11 11 11
19 19 19 19 18 18 20 19 19 19 19 18 19 19 18 17 17 18 18 18 18 18 18 18 17 17 17 17 16 16 15 15 15 14 14 15 15 15 15 15 14 13 12 12 11 11 11 11 11
19 19 18 18 17 17 20 19 19 19 18 18 18 19 18 17 17 17 17 18 18 18 17 17 17 17 16 16 16 15 15 15 14 14 14 14 14 14 14 14 14 13 12 12 12 12 12 11 11
18 17 17 16 16 18 19 19 19 20 19 18 18 18 18 17 16 16 16 17 17 17 16 16 16 16 16 16 16 15 15 14 14 14 13 13 13 13 13 13 13 13 13 12 12 11 12 12 12
17 18 17 18 19 18 18 17 20 20 20 20 19 18 17 16 16 15 14 15 15 15 15 15 15 15 15 15 15 15 14 14 14 14 14 13 13 13 13 13 13 13 12 12 12 11 12 12 12
19 18 19 18 19 17 19 21 22 19 18 18 19 18 17 16 15 14 14 14 14 15 14 14 14 13 13 13 13 13 13 13 13 13 13 13 13 13 13 13 12 12 12 12 12 12 12 12 12
17 18 17 17 18 17 20 20 19 18 17 18 18 18 17 16 15 14 13 13 13 13 13 12 12 12 12 12 12 12 12 11 11 11 11 11 11 11 11 12 12 12 12 12 11 11 11 12 12
16 17 17 17 18 17 18 19 19 19 19 18 18 17 16 15 14 14 13 13 12 12 12 12 12 11 11 11 11 11 11 11 11 11 10 10 10 10 10 10 10 10 10 11 11 11 11 11 11
17 18 17 16 17 17 16 17 19 18 18 18 18 17 16 15 14 13 13 12 12 12 12 11 11 11 11 11 10 10 10 10 10 10 9 9 9 9 10 10 9 9 9 9 10 10 10 10 10
Wind_Speed
16 17 8 2 3 5 11 11 9 1 4 7 6 4 4 7 5 5 6 5 12 13 15 14 18 17 16 14 12 11 8 7 5 5 5 6 5 5 6 6 6 7 7 8 8 6 7 8 9
12 12 6 3 4 7 10 13 8 1 7 4 2 2 1 8 8 9 7 5 11 13 16 16 18 16 15 14 13 11 8 6 4 4 4 5 5 5 6 6 6 6 6 7 7 6 6 7 7
11 10 4 4 6 9 9 7 1 10 7 1 2 3 5 6 7 8 9 8 9 11 15 18 20 17 15 15 13 11 9 6 5 5 5 5 4 5 5 5 5 5 5 5 5 5 4 5 5
6 4 4 6 11 13 9 7 7 6 5 2 3 6 6 5 4 8 10 9 9 10 14 20 20 17 15 15 13 12 9 7 6 5 5 4 5 5 4 3 3 3 3 3 3 3 2 3 2
5 4 5 8 13 14 12 7 5 2 4 7 4 2 7 5 10 12 9 9 9 9 16 17 19 17 15 15 13 11 9 8 7 6 4 4 4 3 3 2 2 3 3 2 1 2 1 1 1
4 4 6 8 12 14 15 4 5 4 6 6 2 2 7 8 9 10 9 8 8 9 15 16 17 15 14 14 12 11 9 9 9 7 4 3 2 3 2 1 3 4 3 3 3 4 4 3 2
5 6 9 12 12 11 13 3 3 6 8 6 3 2 8 10 9 9 9 8 8 8 11 14 14 13 12 12 13 12 9 8 9 8 5 4 3 4 3 3 5 5 4 3 4 5 6 6 5
4 5 9 10 12 13 7 3 2 7 5 5 2 2 7 10 11 9 9 8 8 7 8 11 15 16 14 12 13 13 11 9 10 9 7 7 7 7 6 7 7 7 6 5 6 6 7 8 7
4 5 8 10 9 9 7 4 1 3 5 3 3 6 8 15 12 10 7 7 7 7 7 8 10 12 15 17 16 15 11 11 13 11 12 11 10 13 13 11 11 9 8 7 7 7 7 6 8
5 5 10 12 10 10 11 7 7 2 7 6 6 9 11 11 11 11 10 9 9 9 9 7 7 8 8 11 15 14 13 14 15 14 16 13 14 13 12 15 13 11 10 9 9 9 8 8 10
6 9 11 15 8 8 9 10 9 7 9 8 9 14 13 11 11 11 11 10 10 9 9 8 8 7 6 4 9 10 12 14 15 16 17 16 15 9 12 11 11 11 10 10 11 10 10 12 11
10 13 11 14 3 4 8 10 10 9 10 4 8 9 14 12 12 12 11 10 10 10 11 10 9 8 7 6 4 5 5 6 8 13 16 13 6 4 6 6 9 11 10 9 9 8 12 12 10
13 13 15 15 7 6 9 11 11 11 10 4 5 7 12 12 11 11 11 11 11 12 12 11 10 9 8 7 6 3 4 5 8 10 13 11 4 5 3 3 5 8 8 7 5 6 6 6 8
9 8 14 11 8 8 7 11 9 9 8 6 6 8 10 12 12 11 12 12 11 11 11 11 12 10 9 8 7 6 4 6 8 8 11 13 8 4 6 6 4 5 8 8 6 6 7 7 5
9 10 12 10 11 8 4 10 13 15 5 5 7 9 11 11 11 12 12 12 11 9 10 12 13 14 11 10 10 7 5 6 4 6 13 14 13 8 5 6 6 6 10 9 7 7 6 7 7
7 9 11 12 12 6 3 10 11 6 4 6 8 8 9 11 11 10 11 11 11 10 10 12 12 14 14 11 9 7 5 5 5 8 11 14 15 13 6 7 7 7 9 6 7 7 7 7 6
9 9 12 10 9 7 7 9 11 3 3 7 8 8 7 5 5 7 8 10 11 12 11 11 11 12 13 12 9 8 7 9 5 8 9 12 15 16 9 10 9 8 7 8 8 8 7 7 8
7 11 12 11 7 5 8 11 11 7 7 8 6 5 7 9 10 10 10 7 4 6 10 11 12 12 12 10 9 7 8 8 7 8 9 12 13 15 10 11 10 9 8 9 8 9 8 7 7
11 7 10 3 8 1 8 9 1 7 7 7 9 12 12 11 12 12 13 13 12 10 7 5 9 10 9 7 7 8 8 7 7 8 10 11 12 12 12 11 10 10 10 11 10 9 9 9 6
7 8 7 2 5 0 7 4 5 4 5 9 11 11 9 9 9 10 11 12 12 12 11 10 6 5 7 8 7 6 6 7 8 8 11 10 10 9 11 13 10 10 10 11 12 11 9 8 8
7 7 4 2 1 6 5 4 7 7 10 11 10 9 8 9 10 10 11 11 11 11 11 9 10 7 3 5 5 4 4 5 6 7 7 8 9 8 10 11 10 10 11 11 12 11 12 10 9
7 1 5 6 6 5 8 4 9 9 9 9 8 7 8 9 9 9 9 10 10 10 9 9 9 9 7 3 2 6 6 6 8 6 6 8 11 13 13 12 12 12 12 13 13 14 14 13 13
4 2 1 4 7 6 5 4 8 11 9 9 8 8 8 8 9 9 9 9 9 9 9 9 9 10 9 7 6 4 5 6 6 6 8 8 9 12 14 13 12 13 14 15 15 15 16 15 15
0 4 6 5 4 5 4 2 7 10 12 11 9 9 8 8 8 8 8 8 8 9 9 10 11 11 11 10 8 7 7 7 8 9 8 7 6 6 9 11 12 13 13 15 17 17 15 16 16
5 5 4 5 5 4 3 2 6 10 14 13 11 9 8 8 7 6 7 8 9 10 10 10 10 10 10 10 10 9 9 8 8 8 7 8 7 6 8 8 10 12 12 13 14 16 17 17 17
8 5 4 2 0 3 5 6 4 13 12 12 10 9 8 8 6 6 7 7 8 9 10 10 10 10 10 10 9 9 9 6 6 7 8 8 7 7 9 8 8 10 11 12 13 13 16 14 17
3 4 2 3 1 2 5 5 5 11 11 10 9 9 8 7 7 7 6 6 6 7 7 7 8 8 9 9 9 9 9 8 8 8 7 6 7 8 10 11 11 10 9 11 12 12 14 15 17
4 3 1 3 2 4 5 5 5 13 11 11 10 9 8 8 7 6 5 3 3 4 5 6 7 7 7 9 9 8 9 9 9 9 10 10 10 10 11 10 10 11 11 11 10 11 13 15 16
4 3 4 4 3 3 3 1 5 6 9 10 8 9 8 8 6 4 3 2 2 3 5 6 6 7 8 9 9 10 10 10 11 10 11 12 11 12 12 12 11 11 11 11 11 12 13 15 15
2 4 4 3 3 3 3 3 5 9 9 8 7 8 9 9 6 4 3 1 2 4 5 7 8 8 8 9 9 9 9 9 10 10 11 11 12 12 13 13 13 13 12 11 11 13 13 14 15
Wind_Direction
305 298 288 278 249 235 252 257 260 5 6 53 35 11 15 50 32 106 137 103 123 130 136 149 153 155 150 146 144 143 150 158 145 137 128 129 114 97 82 77 74 73 72 73 73 66 80 89 92
298 301 291 242 245 244 245 248 250 158 77 80 90 324 56 83 85 115 139 152 142 140 146 152 155 155 152 151 149 149 159 162 151 157 142 140 126 101 85 77 72 76 75 72 70 56 77 86 93
277 277 277 244 237 245 262 287 195 88 90 71 129 64 36 78 107 129 136 161 150 143 159 152 155 155 155 155 156 159 166 170 166 156 136 125 123 108 86 81 78 72 66 67 69 53 66 86 82
295 277 245 253 255 247 267 312 45 98 137 186 297 122 83 48 67 108 128 167 152 149 142 146 155 156 158 160 164 167 171 176 166 135 111 118 127 115 99 91 84 88 80 69 69 69 61 82 78
259 265 245 253 257 262 254 207 98 259 200 174 213 109 101 86 91 116 146 167 154 147 126 150 153 157 163 166 170 174 180 184 174 149 124 111 111 112 112 125 144 144 136 125 132 174 202 136 134
284 265 262 254 254 255 262 242 138 258 252 117 165 194 109 126 129 139 146 175 163 137 126 137 149 158 166 172 176 182 192 188 178 172 170 157 127 122 131 162 175 172 162 170 188 202 208 206 194
279 285 270 277 278 269 256 215 233 233 255 167 171 114 123 150 143 141 152 186 151 135 133 142 152 162 172 181 181 185 196 197 180 177 188 173 153 154 148 172 166 161 166 187 205 211 206 209 208
302 291 280 267 273 283 285 107 19 319 304 65 55 336 142 151 136 149 161 174 151 152 155 158 166 172 177 183 180 181 196 197 172 177 183 160 173 184 177 170 165 169 184 200 211 214 208 207 208
285 258 273 272 270 294 26 16 268 25 310 137 109 58 100 129 142 153 164 173 168 174 177 178 170 173 176 180 181 179 189 184 173 180 176 175 198 205 201 191 173 184 196 206 211 211 209 209 220
208 259 267 282 310 343 353 344 312 238 251 213 141 109 120 141 158 169 178 183 184 189 188 190 180 165 175 181 168 181 183 180 186 193 183 197 224 225 187 165 177 190 199 208 214 215 219 227 238
232 245 271 283 322 347 327 314 291 279 267 235 192 159 155 164 178 187 192 190 192 193 194 193 190 172 169 165 166 185 189 182 197 212 190 199 221 190 150 172 184 199 207 215 217 213 220 223 232
249 269 279 283 323 325 302 305 301 259 257 357 39 151 163 178 191 198 201 201 190 194 198 201 187 180 182 168 185 187 190 179 192 209 203 195 204 195 184 191 188 193 199 213 203 207 219 215 224
244 251 269 268 261 261 281 282 273 281 280 252 104 121 174 190 199 204 206 208 199 193 195 193 192 188 189 182 183 188 194 186 197 200 205 202 178 193 208 204 204 195 200 199 200 212 229 207 206
279 270 260 266 261 246 260 284 282 271 267 276 186 181 198 197 201 203 208 213 207 196 190 186 186 195 199 192 187 196 202 197 200 195 199 208 202 189 202 206 206 199 207 211 201 206 229 227 214
271 288 281 254 243 239 271 273 251 243 259 281 263 211 209 213 207 207 210 211 210 202 195 189 188 188 201 206 194 192 198 196 197 207 203 207 207 201 191 206 210 202 208 212 211 221 227 228 224
245 258 263 245 219 187 197 268 281 178 177 261 279 266 218 211 212 212 213 208 205 206 204 197 191 187 194 203 204 195 190 192 195 205 208 210 208 204 198 207 213 205 206 209 213 215 223 228 229
224 238 243 243 197 200 214 272 290 322 235 248 257 277 293 275 243 232 224 213 205 202 202 199 191 190 191 194 200 202 201 206 198 201 209 214 212 208 202 211 212 206 209 213 218 214 213 224 228
217 223 241 226 168 202 250 261 275 340 342 307 302 333 1 11 9 10 4 349 303 228 207 199 195 193 190 186 189 201 216 217 207 207 213 214 216 213 208 215 214 206 212 218 217 216 215 220 221
303 251 243 199 114 170 258 261 330 27 7 23 47 49 42 35 28 22 15 9 3 353 332 246 206 197 188 181 184 197 217 225 226 224 222 218 218 214 211 216 214 213 219 222 217 212 216 223 217
287 288 267 179 104 160 288 287 89 84 73 63 70 66 53 47 42 36 32 23 12 1 352 345 311 233 196 191 193 197 207 221 225 228 229 224 222 220 219 217 217 216 222 225 221 215 218 221 207
254 289 319 55 133 207 263 206 124 107 97 88 86 85 68 55 47 37 34 30 21 10 358 354 348 334 295 183 179 202 226 247 247 244 245 237 231 232 233 229 222 222 224 232 228 221 219 223 217
216 82 7 352 316 231 209 198 156 136 113 107 103 83 66 57 52 45 40 33 24 9 359 359 1 0 355 348 211 215 224 241 250 251 242 230 221 224 225 226 224 226 228 232 232 227 227 223 229
68 97 285 296 294 297 223 249 174 152 141 125 123 106 83 68 57 50 46 45 32 15 8 8 17 18 7 0 347 299 258 254 260 259 254 250 237 226 222 223 226 232 235 236 236 233 229 227 229
59 239 237 246 253 265 186 228 193 180 159 140 131 116 98 82 66 54 46 52 40 26 22 24 29 25 14 8 357 344 321 307 303 297 292 288 280 255 231 223 226 233 239 242 244 243 238 234 231
240 244 223 203 214 214 119 228 260 159 146 145 140 127 107 89 78 55 38 40 38 31 26 26 28 24 16 15 11 1 351 338 324 316 310 306 299 291 267 241 230 232 237 242 244 246 246 240 236
206 252 294 307 250 125 173 221 234 137 130 127 133 129 113 90 85 75 51 47 45 37 27 22 22 20 13 12 8 1 359 354 342 335 331 325 322 317 315 304 273 248 241 242 244 247 249 247 243
204 231 345 320 326 317 243 196 142 134 133 141 153 140 122 100 88 88 74 62 62 50 33 22 17 15 10 4 1 354 354 355 345 336 333 330 329 328 328 324 316 302 279 259 249 249 249 249 247
335 348 249 232 242 245 240 229 207 164 164 169 170 148 124 101 92 91 89 80 63 53 31 20 16 12 4 360 354 347 346 346 343 343 347 346 339 335 331 327 321 315 309 301 287 272 263 257 254
184 234 265 289 313 272 272 272 35 120 165 166 138 112 109 110 116 119 117 116 67 34 24 17 11 14 7 3 356 351 348 352 354 353 349 344 338 334 330 325 319 312 307 305 302 297 290 281 276
279 234 209 230 243 237 293 292 64 84 93 103 122 138 137 136 141 149 153 92 36 19 21 25 19 17 11 3 352 346 348 353 350 345 340 337 333 329 326 324 319 312 304 296 290 290 290 289 288
Height
1519 1516 1516 1517 1518 1519 1513 1498 1487 1486 1487 1491 1493 1493 1494 1497 1502 1510 1507 1505 1505 1504 1504 1506 1507 1508 1510 1511 1512 1513 1513 1514 1514 1515 1515 1516 1516 1516 1515 1515 1515 1515 1515 1515 1515 1516 1517 1517 1518
1519 1516 1517 1516 1518 1522 1509 1494 1487 1486 1490 1493 1494 1494 1493 1499 1501 1502 1502 1503 1504 1503 1504 1505 1507 1508 1510 1511 1511 1512 1512 1513 1514 1515 1516 1516 1517 1516 1516 1515 1515 1515 1515 1515 1515 1515 1517 1517 1518
1518 1518 1518 1514 1514 1513 1502 1487 1483 1487 1490 1493 1494 1495 1496 1500 1502 1502 1501 1503 1505 1504 1504 1504 1506 1508 1509 1510 1511 1511 1512 1513 1514 1516 1516 1516 1517 1516 1516 1516 1516 1516 1516 1515 1515 1516 1517 1517 1518
1520 1519 1517 1515 1511 1501 1494 1491 1486 1489 1492 1494 1494 1494 1497 1502 1502 1501 1501 1503 1505 1505 1504 1505 1507 1508 1509 1510 1511 1511 1512 1513 1515 1516 1516 1516 1516 1516 1517 1516 1516 1516 1516 1516 1516 1516 1517 1517 1518
1521 1519 1517 1515 1506 1495 1488 1487 1488 1489 1490 1491 1493 1493 1497 1501 1501 1500 1501 1503 1505 1506 1504 1506 1507 1507 1508 1509 1510 1511 1512 1513 1514 1515 1515 1516 1516 1517 1517 1516 1516 1516 1516 1516 1516 1516 1517 1517 1518
1521 1516 1518 1515 1504 1493 1486 1483 1486 1489 1488 1490 1492 1493 1497 1499 1500 1501 1501 1504 1506 1506 1503 1505 1506 1507 1508 1508 1509 1510 1511 1512 1513 1514 1515 1515 1515 1516 1516 1515 1515 1516 1516 1516 1516 1516 1516 1516 1517
1523 1520 1518 1511 1502 1493 1483 1482 1485 1488 1488 1489 1491 1492 1496 1498 1499 1500 1501 1504 1506 1506 1504 1504 1505 1506 1507 1507 1508 1509 1510 1511 1512 1513 1514 1514 1514 1514 1515 1515 1515 1515 1515 1514 1514 1514 1514 1515 1516
1521 1519 1514 1509 1503 1494 1482 1482 1486 1489 1488 1489 1491 1492 1495 1497 1497 1499 1501 1504 1505 1505 1505 1503 1504 1505 1506 1507 1507 1508 1509 1510 1511 1512 1512 1513 1513 1513 1513 1513 1513 1513 1513 1513 1513 1513 1513 1514 1515
1520 1522 1518 1507 1500 1492 1486 1486 1488 1490 1490 1489 1491 1493 1493 1494 1496 1498 1500 1502 1503 1504 1504 1505 1505 1505 1505 1506 1506 1507 1508 1509 1510 1510 1511 1511 1512 1512 1511 1511 1511 1511 1511 1511 1511 1511 1512 1513 1514
1518 1522 1514 1502 1496 1493 1491 1490 1489 1490 1489 1489 1490 1492 1493 1494 1495 1496 1497 1499 1500 1501 1502 1503 1506 1506 1506 1507 1506 1506 1507 1507 1508 1509 1509 1510 1510 1510 1510 1509 1510 1509 1509 1509 1509 1510 1511 1512 1513
1512 1514 1508 1502 1497 1496 1494 1492 1491 1491 1489 1487 1487 1488 1490 1492 1493 1494 1496 1498 1499 1500 1500 1502 1503 1504 1505 1506 1505 1505 1505 1506 1507 1508 1508 1509 1509 1510 1509 1509 1509 1509 1508 1508 1508 1509 1509 1510 1511
1510 1508 1505 1502 1498 1498 1496 1493 1491 1489 1489 1486 1486 1487 1488 1490 1491 1493 1495 1497 1498 1498 1498 1499 1500 1502 1503 1504 1505 1505 1505 1505 1506 1506 1507 1507 1507 1508 1508 1507 1507 1506 1506 1506 1507 1507 1507 1508 1508
1505 1504 1504 1500 1498 1498 1496 1494 1491 1488 1486 1485 1485 1487 1487 1488 1490 1492 1494 1495 1496 1495 1495 1496 1498 1499 1501 1502 1503 1503 1504 1504 1504 1505 1505 1506 1506 1506 1506 1506 1506 1505 1505 1504 1504 1504 1504 1504 1504
1501 1500 1500 1497 1496 1495 1494 1491 1489 1486 1484 1483 1483 1485 1486 1487 1488 1490 1491 1491 1492 1493 1493 1494 1495 1497 1499 1499 1500 1501 1502 1502 1502 1503 1503 1504 1504 1504 1504 1504 1503 1503 1502 1502 1501 1501 1501 1501 1500
1501 1501 1499 1495 1494 1492 1493 1491 1485 1481 1482 1481 1482 1483 1484 1485 1486 1487 1487 1488 1489 1490 1491 1492 1492 1493 1495 1496 1497 1498 1499 1500 1500 1501 1501 1501 1501 1501 1500 1500 1500 1499 1499 1498 1497 1496 1496 1496 1495
1500 1503 1504 1492 1489 1489 1495 1495 1479 1477 1479 1480 1481 1481 1481 1481 1482 1483 1484 1484 1485 1486 1488 1489 1489 1490 1491 1493 1494 1494 1495 1496 1496 1497 1497 1497 1497 1497 1496 1496 1495 1495 1494 1493 1492 1491 1490 1490 1490
1501 1504 1500 1491 1485 1485 1489 1490 1479 1478 1477 1478 1478 1478 1479 1480 1480 1480 1480 1480 1481 1482 1484 1486 1487 1487 1487 1489 1490 1491 1491 1491 1492 1492 1492 1492 1492 1492 1491 1490 1489 1489 1488 1487 1487 1485 1485 1485 1484
1498 1497 1492 1489 1483 1484 1487 1486 1479 1476 1476 1476 1476 1476 1477 1478 1478 1477 1477 1477 1478 1479 1479 1480 1481 1482 1483 1484 1485 1486 1486 1486 1486 1486 1486 1486 1486 1485 1484 1483 1482 1482 1482 1481 1480 1480 1480 1480 1480
1487 1486 1488 1482 1482 1483 1485 1482 1477 1476 1476 1475 1476 1476 1477 1478 1477 1475 1474 1473 1473 1474 1475 1476 1477 1477 1478 1478 1479 1479 1479 1480 1480 1480 1480 1480 1479 1478 1477 1476 1475 1475 1474 1474 1474 1474 1474 1473 1474
1486 1488 1486 1481 1479 1482 1483 1480 1477 1477 1477 1478 1479 1480 1481 1480 1478 1476 1473 1471 1470 1469 1469 1470 1472 1474 1474 1474 1475 1475 1475 1475 1474 1474 1474 1473 1473 1472 1471 1470 1469 1468 1468 1468 1468 1467 1467 1467 1468
1488 1491 1487 1483 1480 1480 1485 1484 1480 1478 1478 1481 1482 1483 1482 1481 1479 1476 1473 1471 1470 1468 1466 1466 1467 1469 1471 1472 1472 1472 1472 1471 1470 1469 1469 1469 1469 1468 1467 1466 1464 1463 1462 1461 1461 1462 1461 1460 1460
1491 1488 1488 1487 1491 1488 1485 1495 1485 1480 1481 1482 1483 1483 1483 1481 1479 1477 1475 1473 1471 1469 1467 1466 1465 1466 1468 1469 1470 1469 1469 1468 1467 1467 1467 1465 1464 1462 1460 1459 1458 1457 1456 1455 1455 1455 1454 1454 1452
1488 1487 1487 1488 1491 1492 1481 1488 1487 1479 1483 1483 1482 1483 1482 1481 1480 1478 1477 1475 1473 1471 1469 1467 1466 1465 1466 1466 1467 1467 1466 1465 1464 1463 1462 1460 1458 1456 1453 1451 1450 1448 1447 1445 1445 1445 1445 1444 1443
1487 1489 1488 1488 1493 1499 1481 1489 1485 1477 1477 1480 1481 1481 1482 1482 1481 1480 1479 1477 1475 1473 1471 1470 1468 1467 1466 1465 1465 1464 1463 1462 1460 1458 1457 1455 1454 1452 1450 1447 1444 1442 1440 1439 1438 1438 1437 1436 1434
1490 1495 1501 1504 1505 1494 1481 1485 1480 1466 1468 1472 1476 1479 1481 1482 1481 1480 1479 1477 1475 1473 1472 1471 1470 1469 1467 1466 1464 1463 1461 1460 1458 1455 1453 1451 1449 1448 1447 1444 1440 1437 1435 1433 1432 1431 1430 1429 1427
1487 1487 1496 1498 1493 1489 1487 1489 1470 1462 1464 1469 1474 1478 1480 1481 1481 1480 1479 1477 1475 1473 1472 1472 1471 1470 1468 1467 1465 1463 1461 1459 1457 1454 1451 1449 1446 1444 1443 1440 1437 1434 1430 1428 1426 1425 1424 1422 1420
1481 1483 1480 1487 1485 1494 1481 1467 1462 1461 1465 1469 1473 1476 1478 1480 1480 1480 1479 1477 1475 1473 1472 1472 1471 1469 1468 1466 1465 1463 1460 1458 1455 1453 1450 1447 1444 1441 1438 1435 1433 1430 1427 1424 1421 1418 1416 1414 1412
1482 1479 1485 1490 1493 1497 1479 1473 1472 1469 1468 1469 1471 1473 1476 1478 1479 1479 1478 1477 1475 1473 1472 1472 1471 1469 1468 1466 1464 1462 1459 1457 1454 1451 1448 1444 1441 1437 1433 1430 1427 1425 1422 1419 1415 1411 1408 1406 1403
1484 1484 1483 1483 1484 1494 1491 1479 1462 1460 1462 1466 1469 1472 1474 1476 1476 1477 1477 1476 1475 1474 1472 1472 1471 1469 1466 1464 1462 1459 1457 1454 1451 1448 1445 1441 1438 1434 1430 1425 1422 1419 1416 1413 1408 1404 1401 1398 1395
1477 1477 1481 1491 1489 1487 1492 1485 1460 1460 1462 1465 1468 1469 1470 1472 1473 1474 1475 1475 1475 1474 1472 1471 1470 1467 1465 1462 1460 1457 1454 1451 1448 1445 1441 1438 1434 1430 1426 1421 1417 1413 1409 1406 1402 1398 1393 1389 1386